Windom, MN

4:42 AM CST on January 19, 2018 (GMT -0600)
Windom Municipal

Weather History for KMWM - August, 2012

Change the Weather History Date:

Tuesday, August 28, 2012

  Actual Average Record
Temperature  
Mean Temperature 76 °F -  
Max Temperature 91 °F 79 °F 93 °F (1955)
Min Temperature 62 °F 57 °F 40 °F (1965)
Cooling Degree Days 12    
Growing Degree Days 26 (Base 50)    
Moisture  
Dew Point 62 °F    
Average Humidity 65    
Maximum Humidity 94    
Minimum Humidity 36    
Precipitation  
Precipitation 0.00 in - - ()
Sea Level Pressure  
Sea Level Pressure 30.03 in    
Wind  
Wind Speed 6 mph (SE)    
Max Wind Speed 20 mph    
Max Gust Speed 26 mph    
Visibility 10 miles    
Events Rain , Thunderstorm    
Averages and records for this station are not official NWS values.
T = Trace of Precipitation, MM = Missing Value Source: NWS Daily Summary

Daily Weather History Graph

Daily Weather History Graph

Search for Another Location

Airport or City:

Trip Planner

Search our weather history database for the weather conditions in past years. The results will help you decide how hot, cold, wet, or windy it might be!

Date:

Astronomy

Aug. 28, 2012 Rise Set
Actual Time 6:39 AM CDT 8:02 PM CDT
Civil Twilight 6:09 AM CDT 8:32 PM CDT
Nautical Twilight 5:33 AM CDT 9:08 PM CDT
Astronomical Twilight 4:55 AM CDT 9:46 PM CDT
Moon 6:08 PM CDT (8/28) 3:25 AM CDT (8/28)
Length of Visible Light 14h 22m
Length of Day
13h 22m
Waxing Gibbous, 90% of the Moon is Illuminated
Aug 28
Waxing Gibbous
Aug 31
Full
Sep 8
Last Quarter
Sep 15
New
Sep 22
First Quarter

Hourly Weather History & Observations

Time (CDT) Temp. Heat Index Dew Point Humidity Pressure Visibility Wind Dir Wind Speed Gust Speed Precip Events Conditions
12:12 AM 69.8 °F - 60.8 °F 73% 30.11 in 10.0 mi ESE 5.8 mph - N/A   Clear
12:33 AM 69.8 °F - 60.8 °F 73% 30.12 in 10.0 mi ESE 3.5 mph - N/A   Clear
12:52 AM 69.8 °F - 60.8 °F 73% 30.12 in 10.0 mi Calm Calm - N/A   Clear
1:12 AM 68.0 °F - 60.8 °F 78% 30.11 in 10.0 mi SE 3.5 mph - N/A   Clear
1:33 AM 68.0 °F - 60.8 °F 78% 30.11 in 10.0 mi SE 4.6 mph - N/A   Clear
1:52 AM 68.0 °F - 60.8 °F 78% 30.11 in 10.0 mi Calm Calm - N/A   Clear
2:12 AM 68.0 °F - 60.8 °F 78% 30.11 in 10.0 mi Calm Calm - N/A   Clear
2:33 AM 68.0 °F - 60.8 °F 78% 30.10 in 10.0 mi SE 3.5 mph - N/A   Clear
2:52 AM 66.2 °F - 60.8 °F 83% 30.10 in 10.0 mi SE 4.6 mph - N/A   Clear
3:12 AM 66.2 °F - 60.8 °F 83% 30.09 in 10.0 mi SE 4.6 mph - N/A   Clear
3:33 AM 66.2 °F - 60.8 °F 83% 30.09 in 10.0 mi SSE 5.8 mph - N/A   Clear
3:52 AM 68.0 °F - 62.6 °F 83% 30.08 in 10.0 mi SE 5.8 mph - N/A   Clear
4:12 AM 68.0 °F - 62.6 °F 83% 30.08 in 10.0 mi SSE 5.8 mph - N/A   Clear
4:33 AM 66.2 °F - 62.6 °F 88% 30.07 in 10.0 mi SSE 4.6 mph - N/A   Clear
4:52 AM 66.2 °F - 62.6 °F 88% 30.07 in 10.0 mi SSE 4.6 mph - N/A   Clear
5:12 AM 66.2 °F - 60.8 °F 83% 30.06 in 10.0 mi SSE 4.6 mph - N/A   Clear
5:32 AM 66.2 °F - 62.6 °F 88% 30.07 in 10.0 mi SE 3.5 mph - N/A   Clear
5:53 AM 62.6 °F - 60.8 °F 94% 30.07 in 10.0 mi ESE 3.5 mph - N/A   Clear
6:12 AM 64.4 °F - 60.8 °F 88% 30.08 in 10.0 mi Calm Calm - N/A   Clear
6:32 AM 66.2 °F - 62.6 °F 88% 30.09 in 10.0 mi Calm Calm - N/A Thunderstorm Clear
6:53 AM 66.2 °F - 62.6 °F 88% 30.10 in 10.0 mi SSW 4.6 mph - N/A   Clear
7:12 AM 66.2 °F - 62.6 °F 88% 30.11 in 10.0 mi Calm Calm - N/A   Clear
7:32 AM 66.2 °F - 62.6 °F 88% 30.12 in 10.0 mi Calm Calm - N/A   Clear
7:53 AM 66.2 °F - 62.6 °F 88% 30.13 in 10.0 mi Calm Calm - N/A Thunderstorm Clear
8:12 AM 68.0 °F - 64.4 °F 88% 30.10 in 10.0 mi Calm Calm - N/A   Clear
8:32 AM 69.8 °F - 64.4 °F 83% 30.11 in 10.0 mi South 3.5 mph - N/A Thunderstorm Thunderstorm
8:53 AM 73.4 °F - 64.4 °F 73% 30.13 in 10.0 mi Calm Calm - N/A Thunderstorm Clear
9:12 AM 71.6 °F - 64.4 °F 78% 30.15 in 10.0 mi Calm Calm - N/A   Clear
9:32 AM 73.4 °F - 64.4 °F 73% 30.15 in 10.0 mi West 4.6 mph - N/A   Clear
10:12 AM 71.6 °F - 66.2 °F 83% 30.12 in 10.0 mi Calm Calm - N/A Rain Light Rain
10:32 AM 73.4 °F - 66.2 °F 78% 30.09 in 10.0 mi ESE 3.5 mph - N/A Rain Light Rain
10:52 AM 73.4 °F - 66.2 °F 78% 30.05 in 10.0 mi ESE 9.2 mph - N/A Rain Light Rain
11:12 AM 75.2 °F - 66.2 °F 73% 30.06 in 10.0 mi South 8.1 mph - N/A   Clear
12:12 PM 80.6 °F 82.3 °F 64.4 °F 58% 30.04 in 10.0 mi South 13.8 mph 19.6 mph N/A   Clear
12:33 PM 84.2 °F 85.6 °F 64.4 °F 51% 30.03 in 10.0 mi South 12.7 mph 18.4 mph N/A   Clear
12:52 PM 86.0 °F 87.3 °F 64.4 °F 48% 30.02 in 10.0 mi South 16.1 mph 21.9 mph N/A   Clear
1:32 PM 87.8 °F 89.4 °F 64.4 °F 46% 30.00 in 10.0 mi South 16.1 mph 21.9 mph N/A   Clear
1:52 PM 89.6 °F 90.1 °F 62.6 °F 40% 29.98 in 10.0 mi South 12.7 mph 18.4 mph N/A   Clear
2:12 PM 89.6 °F 90.1 °F 62.6 °F 40% 29.97 in 10.0 mi SSE 11.5 mph 21.9 mph N/A   Clear
2:32 PM 87.8 °F 88.5 °F 62.6 °F 43% 29.97 in 10.0 mi SSE 19.6 mph 24.2 mph N/A   Clear
2:53 PM 89.6 °F 90.1 °F 62.6 °F 40% 29.96 in 10.0 mi SSE 17.3 mph 26.5 mph N/A   Clear
3:17 PM 89.6 °F 89.5 °F 60.8 °F 38% 29.96 in 10.0 mi SSE 16.1 mph 24.2 mph N/A   Clear
3:32 PM 91.4 °F 91.4 °F 60.8 °F 36% 29.96 in 10.0 mi SSE 15.0 mph 19.6 mph N/A   Clear
3:53 PM 91.4 °F 91.4 °F 60.8 °F 36% 29.96 in 10.0 mi SE 16.1 mph 20.7 mph N/A   Clear
4:12 PM 91.4 °F 91.4 °F 60.8 °F 36% 29.96 in 10.0 mi South 11.5 mph 18.4 mph N/A   Clear
4:32 PM 89.6 °F 89.5 °F 60.8 °F 38% 29.96 in 10.0 mi SSE 15.0 mph 19.6 mph N/A   Clear
4:53 PM 91.4 °F 91.4 °F 60.8 °F 36% 29.95 in 10.0 mi South 13.8 mph - N/A   Clear
5:32 PM 89.6 °F 89.5 °F 60.8 °F 38% 29.95 in 10.0 mi SSE 12.7 mph 18.4 mph N/A   Clear
5:52 PM 89.6 °F 89.5 °F 60.8 °F 38% 29.95 in 10.0 mi South 10.4 mph - N/A   Clear
6:12 PM 89.6 °F 89.5 °F 60.8 °F 38% 29.95 in 10.0 mi SSE 9.2 mph - N/A   Clear
6:32 PM 87.8 °F 88.5 °F 62.6 °F 43% 29.94 in 10.0 mi SSE 10.4 mph - N/A   Clear
6:52 PM 87.8 °F 88.5 °F 62.6 °F 43% 29.94 in 10.0 mi SE 9.2 mph - N/A   Clear
7:12 PM 86.0 °F 86.6 °F 62.6 °F 45% 29.93 in 10.0 mi SE 9.2 mph - N/A   Clear
7:33 PM 84.2 °F 85.6 °F 64.4 °F 51% 29.93 in 10.0 mi SE 6.9 mph - N/A   Clear
7:52 PM 82.4 °F 83.9 °F 64.4 °F 54% 29.93 in 10.0 mi SE 6.9 mph - N/A   Clear
8:12 PM 80.6 °F 82.3 °F 64.4 °F 58% 29.93 in 10.0 mi ESE 6.9 mph - N/A   Clear
8:33 PM 80.6 °F 82.3 °F 64.4 °F 58% 29.93 in 10.0 mi SE 6.9 mph - N/A   Clear
8:52 PM 78.8 °F - 64.4 °F 61% 29.93 in 10.0 mi ESE 6.9 mph - N/A   Clear
9:12 PM 78.8 °F - 64.4 °F 61% 29.94 in 10.0 mi SE 6.9 mph - N/A   Clear
9:33 PM 78.8 °F - 62.6 °F 57% 29.94 in 10.0 mi SE 5.8 mph - N/A   Clear
9:52 PM 78.8 °F - 62.6 °F 57% 29.94 in 10.0 mi SE 9.2 mph - N/A   Clear
10:12 PM 78.8 °F - 60.8 °F 54% 29.94 in 10.0 mi SE 10.4 mph - N/A   Clear
10:33 PM 78.8 °F - 60.8 °F 54% 29.94 in 10.0 mi SE 10.4 mph - N/A   Clear
10:52 PM 77.0 °F - 60.8 °F 57% 29.94 in 10.0 mi SE 8.1 mph - N/A   Clear
11:12 PM 75.2 °F - 60.8 °F 61% 29.94 in 10.0 mi SE 5.8 mph - N/A   Clear
11:33 PM 73.4 °F - 60.8 °F 65% 29.94 in 10.0 mi SE 8.1 mph - N/A   Clear
11:52 PM 73.4 °F - 60.8 °F 65% 29.94 in 10.0 mi SE 8.1 mph - N/A   Clear